Ogallala, NE

10:09 PM MDT on March 25, 2017 (GMT -0600)
Searle

Weather History for KOGA - March, 2014

Change the Weather History Date:

Friday, March 28, 2014

  Actual Average Record
Temperature  
Mean Temperature 42 °F -  
Max Temperature 57 °F 56 °F 82 °F (1986)
Min Temperature 26 °F 29 °F 5 °F (1975)
Degree Days  
Heating Degree Days 23    
Moisture  
Dew Point 25 °F    
Average Humidity 60    
Maximum Humidity 93    
Minimum Humidity 23    
Precipitation  
Precipitation 0.00 in - - ()
Sea Level Pressure  
Sea Level Pressure 29.99 in    
Wind  
Wind Speed 10 mph (North)    
Max Wind Speed 31 mph    
Max Gust Speed 44 mph    
Visibility 9 miles    
Events Snow    
Averages and records for this station are not official NWS values.
T = Trace of Precipitation, MM = Missing Value Source: NWS Daily Summary

Daily Weather History Graph

Daily Weather History Graph

Search for Another Location

Airport or City:

Trip Planner

Search our weather history database for the weather conditions in past years. The results will help you decide how hot, cold, wet, or windy it might be!

Date:

Astronomy

Mar. 28, 2014 Rise Set
Actual Time 6:36 AM MDT 7:07 PM MDT
Civil Twilight 6:09 AM MDT 7:35 PM MDT
Nautical Twilight 5:36 AM MDT 8:08 PM MDT
Astronomical Twilight 5:03 AM MDT 8:41 PM MDT
Moon 5:10 AM MDT (3/28) 5:05 PM MDT (3/28)
Length of Visible Light 13h 26m
Length of Day
12h 30m
Waning Crescent, 6% of the Moon is Illuminated
Mar 28
Waning Crescent
Mar 30
New
Apr 7
First Quarter
Apr 15
Full
Apr 22
Last Quarter

Hourly Weather History & Observations

Time (MDT) Temp. Windchill Dew Point Humidity Pressure Visibility Wind Dir Wind Speed Gust Speed Precip Events Conditions
12:15 AM 30.9 °F 25.2 °F 27.1 °F 86% 29.91 in 3.0 mi ESE 5.8 mph - N/A Snow Light Snow
12:35 AM 30.7 °F 24.1 °F 27.3 °F 87% 29.90 in 10.0 mi East 6.9 mph - N/A   Overcast
12:55 AM 30.7 °F 24.9 °F 27.3 °F 87% 29.89 in 10.0 mi ESE 5.8 mph - N/A   Mostly Cloudy
1:15 AM 30.9 °F 24.3 °F 27.1 °F 86% 29.89 in 10.0 mi ESE 6.9 mph - N/A   Overcast
1:35 AM 30.9 °F 25.2 °F 27.0 °F 85% 29.89 in 10.0 mi SE 5.8 mph - N/A   Overcast
1:55 AM 30.6 °F 25.8 °F 27.3 °F 88% 29.89 in 10.0 mi SSE 4.6 mph - N/A   Mostly Cloudy
2:15 AM 30.2 °F 24.3 °F 27.3 °F 89% 29.88 in 7.0 mi SE 5.8 mph - N/A   Mostly Cloudy
2:35 AM 30.0 °F 25.2 °F 27.1 °F 89% 29.86 in 7.0 mi SSE 4.6 mph - N/A   Mostly Cloudy
2:55 AM 30.0 °F - 27.1 °F 89% 29.88 in 7.0 mi Calm Calm - N/A   Overcast
3:15 AM 30.0 °F 26.5 °F 27.0 °F 88% 29.89 in 7.0 mi SSW 3.5 mph - N/A   Overcast
3:35 AM 30.0 °F 25.2 °F 27.0 °F 88% 29.89 in 7.0 mi South 4.6 mph - N/A   Overcast
3:55 AM 30.2 °F 24.3 °F 27.3 °F 89% 29.87 in 7.0 mi SSE 5.8 mph - N/A   Overcast
4:15 AM 30.2 °F 24.3 °F 27.1 °F 88% 29.87 in 7.0 mi SSE 5.8 mph - N/A   Overcast
4:35 AM 30.4 °F 24.5 °F 27.5 °F 89% 29.87 in 7.0 mi SE 5.8 mph - N/A   Scattered Clouds
4:55 AM 30.4 °F 25.6 °F 27.3 °F 88% 29.88 in 7.0 mi SSE 4.6 mph - N/A   Clear
5:15 AM 30.2 °F 25.4 °F 27.5 °F 90% 29.88 in 7.0 mi SE 4.6 mph - N/A   Clear
5:35 AM 30.2 °F - 27.5 °F 90% 29.88 in 7.0 mi Calm Calm - N/A   Clear
6:15 AM 30.2 °F - 27.9 °F 91% 29.88 in 7.0 mi Calm Calm - N/A   Clear
6:35 AM 30.0 °F - 27.5 °F 90% 29.89 in 5.0 mi Calm Calm - N/A   Clear
6:55 AM 30.2 °F - 27.9 °F 91% 29.89 in 4.0 mi Calm Calm - N/A   Clear
7:15 AM 29.8 °F - 27.5 °F 91% 29.90 in 4.0 mi Calm Calm - N/A   Clear
7:35 AM 27.9 °F - 25.7 °F 92% 29.91 in 4.0 mi Calm Calm - N/A   Clear
7:55 AM 29.7 °F 26.1 °F 27.9 °F 93% 29.92 in 4.0 mi WNW 3.5 mph - N/A   Clear
8:15 AM 32.5 °F - 30.2 °F 91% 29.92 in 7.0 mi Calm Calm - N/A   Clear
8:35 AM 35.2 °F 30.3 °F 31.6 °F 87% 29.93 in 7.0 mi WSW 5.8 mph - N/A   Clear
8:55 AM 39.9 °F 32.9 °F 32.7 °F 75% 29.93 in 10.0 mi WSW 11.5 mph - N/A   Clear
9:15 AM 43.2 °F 37.0 °F 32.2 °F 65% 29.93 in 10.0 mi WSW 11.5 mph - N/A   Clear
9:35 AM 45.0 °F 40.1 °F 32.0 °F 60% 29.94 in 10.0 mi WSW 9.2 mph 16.1 mph N/A   Clear
9:55 AM 48.9 °F - 29.5 °F 47% 29.95 in 10.0 mi West 13.8 mph 18.4 mph N/A   Clear
10:15 AM 50.0 °F - 28.4 °F 43% 29.95 in 10.0 mi West 19.6 mph 23.0 mph N/A   Clear
10:35 AM 50.9 °F - 25.2 °F 37% 29.95 in 10.0 mi WNW 20.7 mph 27.6 mph N/A   Clear
10:55 AM 51.6 °F - 25.2 °F 36% 29.95 in 10.0 mi WNW 23.0 mph 31.1 mph N/A   Clear
11:15 AM 52.5 °F - 25.3 °F 35% 29.95 in 10.0 mi NW 18.4 mph 32.2 mph N/A   Scattered Clouds
11:35 AM 53.6 °F - 22.1 °F 29% 29.96 in 10.0 mi WNW 27.6 mph 41.4 mph N/A   Scattered Clouds
11:55 AM 53.8 °F - 22.5 °F 30% 29.96 in 10.0 mi NW 29.9 mph 35.7 mph N/A   Clear
12:15 PM 55.2 °F - 21.9 °F 27% 29.96 in 10.0 mi NW 27.6 mph 40.3 mph N/A   Scattered Clouds
12:35 PM 54.7 °F - 21.6 °F 28% 29.96 in 10.0 mi WNW 28.8 mph 41.4 mph N/A   Scattered Clouds
12:55 PM 54.7 °F - 21.2 °F 27% 29.96 in 10.0 mi NW 28.8 mph 39.1 mph N/A   Scattered Clouds
1:15 PM 56.3 °F - 20.3 °F 25% 29.97 in 10.0 mi NW 31.1 mph 43.7 mph N/A   Scattered Clouds
1:35 PM 57.2 °F - 19.8 °F 23% 29.97 in 10.0 mi NW 31.1 mph 41.4 mph N/A   Scattered Clouds
1:55 PM 56.1 °F - 20.8 °F 25% 29.97 in 10.0 mi NW 28.8 mph 38.0 mph N/A   Scattered Clouds
2:15 PM 54.7 °F - 21.6 °F 28% 29.98 in 10.0 mi NW 27.6 mph 35.7 mph N/A   Scattered Clouds
2:35 PM 56.3 °F - 21.4 °F 26% 29.98 in 10.0 mi NNW 23.0 mph 34.5 mph N/A   Scattered Clouds
2:55 PM 55.6 °F - 19.8 °F 25% 29.99 in 10.0 mi NNW 26.5 mph 40.3 mph N/A   Scattered Clouds
3:15 PM 55.6 °F - 20.8 °F 26% 30.00 in 10.0 mi NNW 21.9 mph 34.5 mph N/A   Clear
3:35 PM 54.7 °F - 21.9 °F 28% 30.00 in 10.0 mi NNW 26.5 mph 32.2 mph N/A   Clear
3:55 PM 54.3 °F - 21.4 °F 28% 30.01 in 10.0 mi North 26.5 mph 38.0 mph N/A   Scattered Clouds
4:15 PM 54.5 °F - 21.9 °F 28% 30.02 in 10.0 mi NNW 26.5 mph 33.4 mph N/A   Clear
4:35 PM 53.6 °F - 21.2 °F 28% 30.03 in 10.0 mi North 21.9 mph 26.5 mph N/A   Clear
4:55 PM 53.6 °F - 20.5 °F 27% 30.04 in 10.0 mi North 25.3 mph 29.9 mph N/A   Clear
5:15 PM 52.7 °F - 20.8 °F 29% 30.05 in 10.0 mi North 24.2 mph 27.6 mph N/A   Clear
5:35 PM 51.8 °F - 20.3 °F 29% 30.05 in 10.0 mi North 20.7 mph 32.2 mph N/A   Clear
5:55 PM 50.9 °F - 20.8 °F 31% 30.07 in 10.0 mi North 20.7 mph 27.6 mph N/A   Clear
6:15 PM 49.5 °F - 21.7 °F 34% 30.08 in 10.0 mi North 17.3 mph 24.2 mph N/A   Clear
6:35 PM 47.8 °F - 23.0 °F 38% 30.10 in 10.0 mi North 13.8 mph - N/A   Clear
6:55 PM 45.5 °F 39.6 °F 23.5 °F 42% 30.11 in 10.0 mi NNE 12.7 mph - N/A   Clear
7:15 PM 43.3 °F 38.1 °F 23.9 °F 46% 30.11 in 10.0 mi NNE 9.2 mph - N/A   Clear
7:35 PM 41.0 °F 35.2 °F 24.3 °F 51% 30.11 in 10.0 mi NNE 9.2 mph - N/A   Clear
7:55 PM 40.5 °F 36.5 °F 25.2 °F 54% 30.13 in 10.0 mi ENE 5.8 mph - N/A   Clear
8:15 PM 39.2 °F 32.5 °F 25.7 °F 58% 30.15 in 10.0 mi East 10.4 mph - N/A   Clear
8:35 PM 37.8 °F 30.7 °F 25.7 °F 62% 30.15 in 10.0 mi ENE 10.4 mph - N/A   Clear
8:55 PM 36.7 °F 30.5 °F 25.3 °F 64% 30.16 in 10.0 mi East 8.1 mph - N/A   Clear
9:15 PM 35.6 °F 27.1 °F 25.0 °F 65% 30.17 in 10.0 mi East 12.7 mph - N/A   Clear
9:35 PM 34.7 °F 28.1 °F 24.8 °F 67% 30.18 in 10.0 mi East 8.1 mph - N/A   Clear
9:55 PM 33.6 °F 27.5 °F 24.6 °F 70% 30.18 in 10.0 mi East 6.9 mph - N/A   Clear
10:15 PM 31.3 °F 26.6 °F 23.7 °F 74% 30.19 in 10.0 mi SSE 4.6 mph - N/A   Clear
10:35 PM 30.9 °F 27.5 °F 23.9 °F 75% 30.19 in 10.0 mi East 3.5 mph - N/A   Clear
10:55 PM 30.0 °F 26.5 °F 23.5 °F 77% 30.20 in 10.0 mi ESE 3.5 mph - N/A   Clear
11:15 PM 28.6 °F - 22.6 °F 78% 30.20 in 10.0 mi Calm Calm - N/A   Clear
11:35 PM 26.8 °F - 22.3 °F 83% 30.20 in 10.0 mi Calm Calm - N/A   Clear